EW4638 Weather Reports


time (UTC)temp
C
wind
direction
speed
KPH
gust
KPH
rain 1hr
cm
rain 24hr
cm
rain mn
cm
humidity
%
barometer
mb
20260903101523 22 293 0.0 0.0 0.00 0.00 0.00 85 1015.5
20260903100029 23 293 0.0 0.0 0.00 0.00 0.00 85 1015.5
20260903094522 23 293 0.0 0.0 0.00 0.00 0.00 84 1015.5
20260903093022 23 293 0.0 0.0 0.00 0.00 0.00 84 1015.5
20260903091520 23 293 0.0 0.0 0.00 0.00 0.00 83 1015.5
20260903090019 23 293 0.0 0.0 0.00 0.00 0.00 83 1015.4
20260903084537 23 293 0.0 0.0 0.00 0.00 0.00 83 1015.2
20260903083017 23 293 0.0 0.0 0.00 0.00 0.00 83 1015.2
20260903081515 23 293 0.0 0.0 0.00 0.00 0.00 83 1015.2
20260903080014 23 293 0.0 0.0 0.00 0.00 0.00 83 1015.3
20260903074512 23 293 0.0 0.0 0.00 0.00 0.00 83 1015.2
20260903073012 23 293 0.0 0.0 0.00 0.00 0.00 83 1015.2
20260903071512 23 293 0.0 0.0 0.00 0.00 0.00 83 1015.2
20260903070010 23 293 0.0 0.0 0.00 0.00 0.00 82 1015.1
20260903063010 24 293 0.0 0.0 0.00 0.00 0.00 80 1015.1
20260903061506 25 293 0.0 0.0 0.00 0.00 0.00 79 1015.1
20260903060003 25 293 0.0 0.0 0.00 0.00 0.00 79 1015.2
20260903054502 25 293 0.0 0.0 0.00 0.00 0.00 79 1015.2
20260903053115 25 293 0.0 0.0 0.00 0.00 0.00 80 1015.3
20260903053001 25 293 0.0 0.0 0.00 0.00 0.00 80 1015.3
20260903051559 25 293 0.0 0.0 0.00 0.00 0.00 80 1015.4
20260903050104 25 293 0.0 0.0 0.00 0.00 0.00 79 1015.4
20260903044602 25 293 0.0 0.0 0.00 0.00 0.00 77 1015.3
20260903043107 25 293 0.0 0.0 0.00 0.00 0.00 77 1015.3
20260903041554 25 293 0.0 0.0 0.00 0.00 0.00 76 1015.4
20260903040052 26 293 0.0 0.0 0.00 0.00 0.00 75 1015.4
20260903034546 26 293 0.0 0.0 0.00 0.00 0.00 74 1015.4
20260903033045 26 293 0.0 3.2 0.00 0.00 0.00 74 1015.6
20260903031543 27 293 0.0 0.0 0.00 0.00 0.00 73 1015.5
20260903030043 27 293 0.0 0.0 0.00 0.00 0.00 71 1015.5
20260903024542 27 293 0.0 0.0 0.00 0.00 0.00 70 1015.4
20260903023041 27 293 0.0 0.0 0.00 0.00 0.00 69 1015.4
20260903021549 28 293 0.0 0.0 0.00 0.00 0.00 69 1015.4
20260903020041 28 293 0.0 0.0 0.00 0.00 0.00 70 1015.4
20260903014542 28 293 0.0 0.0 0.00 0.00 0.00 67 1015.3
20260903013040 28 293 0.0 0.0 0.00 0.00 0.00 66 1015.2
20260903011539 29 293 0.0 0.0 0.00 0.00 0.00 66 1015.0
20260903010036 30 293 0.0 0.0 0.00 0.00 0.00 65 1014.8
20260903004536 30 293 0.0 0.0 0.00 0.00 0.00 63 1014.8
20260903003036 30 293 0.0 0.0 0.00 0.00 0.00 61 1014.7
20260903001534 31 293 0.0 0.0 0.00 0.00 0.00 59 1014.7
20260903000035 31 293 0.0 0.0 0.00 0.00 0.00 57 1014.5
20260902234532 32 293 0.0 0.0 0.00 0.00 0.00 56 1014.6
20260902233030 32 293 0.0 0.0 0.00 0.00 0.00 55 1014.8
20260902231532 33 293 0.0 0.0 0.00 0.00 0.00 53 1014.7
20260902230029 33 293 0.0 0.0 0.00 0.00 0.00 51 1014.8
20260902224529 33 293 0.0 0.0 0.00 0.00 0.00 51 1014.9
20260902223027 34 264 0.0 0.0 0.00 0.00 0.00 50 1015.0
20260902221530 35 264 0.0 0.0 0.00 0.00 0.00 48 1015.0
20260902220039 35 355 0.0 1.6 0.00 0.00 0.00 46 1015.0
20260902214524 35 355 0.0 1.6 0.00 0.00 0.00 46 1015.1
20260902213122 35 355 0.0 0.0 0.00 0.00 0.00 45 1015.1
20260902211519 35 355 0.0 0.0 0.00 0.00 0.00 48 1015.1
20260902210039 35 355 0.0 0.0 0.00 0.00 0.00 49 1015.1
20260902203013 35 36 0.0 0.0 0.00 0.00 0.00 50 1015.3
20260902201511 34 36 0.0 0.0 0.00 0.00 0.00 52 1015.5
20260902200011 33 37 0.0 0.0 0.00 0.00 0.00 54 1015.6
20260902194508 33 36 0.0 0.0 0.00 0.00 0.00 53 1015.8
20260902193007 32 36 0.0 0.0 0.00 0.00 0.00 55 1016.1
20260902191506 32 36 0.0 0.0 0.00 0.00 0.00 58 1016.3
20260902190008 32 36 0.0 0.0 0.00 0.00 0.00 59 1016.4
20260902184504 33 36 0.0 0.0 0.00 0.00 0.00 56 1016.4
20260902183004 33 36 0.0 0.0 0.00 0.00 0.00 56 1016.5
20260902181503 33 36 0.0 0.0 0.00 0.00 0.00 54 1016.6
20260902180005 34 36 0.0 1.6 0.00 0.00 0.00 50 1016.7
20260902174502 35 355 0.0 0.0 0.00 0.00 0.00 50 1016.8
20260902173059 35 348 0.0 0.0 0.00 0.00 0.00 49 1017.1
20260902171557 34 348 0.0 4.8 0.00 0.00 0.00 52 1017.3
20260902170155 34 293 0.0 0.0 0.00 0.00 0.00 49 1017.5
20260902164552 33 292 0.0 0.0 0.00 0.00 0.00 51 1017.6
20260902163049 33 290 0.0 4.8 0.00 0.00 0.00 53 1017.8
20260902161545 33 290 0.0 0.0 0.00 0.00 0.00 54 1017.9
20260902160046 32 226 0.0 1.6 0.00 0.00 0.00 57 1018.1
20260902154539 32 316 0.0 4.8 0.00 0.00 0.00 61 1018.2
20260902153040 31 315 0.0 6.4 0.00 0.00 0.00 64 1018.3
20260902151529 30 229 0.0 4.8 0.00 0.00 0.00 68 1018.3
20260902150025 28 297 0.0 0.0 0.00 0.00 0.00 74 1018.2
20260902144534 26 297 0.0 3.2 0.00 0.00 0.00 79 1018.1
20260902143016 25 239 0.0 0.0 0.00 0.00 0.00 82 1018.0
20260902141513 25 26 0.0 0.0 0.00 0.00 0.00 83 1018.0
20260902140011 23 28 0.0 0.0 0.00 0.00 0.00 85 1018.0
20260902134514 23 28 0.0 0.0 0.00 0.00 0.00 85 1018.2
20260902133008 22 28 0.0 0.0 0.00 0.00 0.00 85 1018.0
20260902131607 22 29 0.0 1.6 0.00 0.00 0.00 85 1018.1
20260902130006 22 29 0.0 0.0 0.00 0.00 0.00 85 1018.1
20260902124506 22 29 0.0 3.2 0.00 0.00 0.00 86 1018.1
20260902123005 22 29 0.0 0.0 0.00 0.00 0.00 85 1018.0
20260902121600 21 29 0.0 0.0 0.00 0.00 0.00 86 1017.9
20260902120059 21 29 0.0 0.0 0.00 0.00 0.00 86 1017.9
20260902114556 21 29 0.0 0.0 0.00 0.00 0.00 85 1017.6
20260902113055 21 62 0.0 0.0 0.00 0.00 0.00 85 1017.4
20260902111549 21 62 0.0 0.0 0.00 0.00 0.00 85 1017.2
20260902110048 21 62 0.0 0.0 0.00 0.00 0.00 85 1017.0
20260902104548 21 62 0.0 0.0 0.00 0.00 0.00 85 1017.0
20260902103044 21 62 0.0 0.0 0.00 0.00 0.00 85 1016.7